Regional Weather Roundup
Issued by NWS Portland, ME

Current Version | Previous Version | Graphics & Text | Print | Product List | Glossary On
Versions: 1 2 3 4 5 6 7 8 9 10 11 12 13 14 15 16 17 18 19 20 21 22 23 24 25 26 27 28 29 30 31 32 33 34 35 36 37 38 39 40 41 42 43 44 45 46 47 48 49 50
000
ASUS41 KGYX 021705
RWRGYX
WEATHER ROUNDUP FOR MAINE AND NEW HAMPSHIRE
NATIONAL WEATHER SERVICE GRAY ME
100 PM EDT TUE SEP 02 2014

MEZ002-005-006-010-012-015-018-020-021-024-026-027-029-021800-
MAINE

CITY           SKY/WX    TMP DP  RH WIND       PRES   REMARKS
PORTLAND       PTSUNNY   73  67  81 E7        29.85F
SANFORD        MOSUNNY   88  70  55 S3        29.86F HX  92
BAR HARBOR     CLOUDY    66  64  94 CALM      29.90F
WISCASSET      MOSUNNY   79  71  76 VRB6      29.87F
ROCKLAND       CLOUDY    64  64 100 E8        29.87F VSB 1/2
FRYEBURG       MOSUNNY   85  70  60 MISG      29.84F
LEWISTONAUBURN SUNNY     79  70  73 S7        29.85F
AUGUSTA        MOSUNNY   77  70  79 SE8       29.86F
WATERVILLE     CLOUDY    73  72  94 SW5       29.82F
BANGOR         CLOUDY    70  67  90 S9        29.88F
GREENVILLE       N/A     70  67  90 VRB6      29.86F
MILLINOCKET    CLOUDY    72  67  84 VRB6      29.88F
HOULTON        CLOUDY    72  65  78 SW9       29.87S
PRESQUE ISLE   PTSUNNY   73  64  73 S14       29.83F
FRENCHVILLE    PTSUNNY   73  65  75 SE12      29.84F
CARIBOU        PTSUNNY   74  66  76 S14       29.84F
$$

NHZ002-005-008-009-011-012-014-021800-
NEW HAMPSHIRE

CITY           SKY/WX    TMP DP  RH WIND       PRES   REMARKS
PORTSMOUTH     PTSUNNY   84  73  70 S6        29.83F HX  91
ROCHESTER      PTSUNNY   86  71  60 VRB6      29.84F HX  91
NASHUA         MOSUNNY   89  71  55 VRB5      29.85F HX  95
MANCHESTER     PTSUNNY   86  70  58 SW7       29.83F HX  90
CONCORD        PTSUNNY   86  70  58 SW8       29.84F HX  90
LACONIA        MOSUNNY   82  70  65 SW9       29.84F
PLYMOUTH       CLOUDY    82  73  76 CALM      29.84F
BERLIN         NOT AVBL
WHITEFIELD     MOSUNNY   83  65  54 SW8G17    29.84F
JAFFREY        PTSUNNY   83  69  62 S7        29.89F
LEBANON        PTSUNNY   81  69  67 S9G16     29.84F
MT WASHINGTON  NOT AVBL
$$

VTZ005-007-008-021800-
VERMONT

CITY           SKY/WX    TMP DP  RH WIND       PRES   REMARKS
ST JOHNSBURY     N/A     80  68  66 MISG      29.80F
MONTPELIER     PTSUNNY   81  68  64 S10       29.87F
BURLINGTON     MOSUNNY   85  69  58 S13G24    29.79F
$$

MAZ007-012-024-CTZ003-RIZ002-NYZ038-NYZ072-021800-
SOUTHERN NEW ENGLAND AND NY

CITY           SKY/WX    TMP DP  RH WIND       PRES   REMARKS
BOSTON         MOSUNNY   91  68  46 SW12G17   29.84F HX  95
WORCESTER      MOSUNNY   83  69  62 SW13      29.91F
NANTUCKET      FOG       73  72  94 S10       29.91F VSB 3/4
PROVIDENCE     PTSUNNY   83  74  74 SE6       29.88F
HARTFORD       PTSUNNY   90  69  50 SW7       29.85F HX  94
ALBANY         MOSUNNY   84  68  58 SW7       29.86F
NEW YORK CITY  PTSUNNY   89  69  51 NW3       29.87F HX  93
$$

ANZ081-ANZ082-ANZ150-NHZ014-MEZ023>029-021800-
COASTAL MARINE OBSERVATIONS

STATION/POSITION TIME  TEMP    WIND        PRES    WAVE
                       AIR SEA DIR/SP/G            HT/PER
                 (UTC) (F)     (DEG/KT/KT) (MB)    (FT/S)
PORTLAND WX BUOY 1650   65 63  100/  6/  6 1010.9F   2/ 9
WELLS            1600   67 61  110/  4/  5 1010.8F
ISLE OF SHOALS   1600   70     150/ 11/ 11 1010.9F
JEFFREYS LEDGE   1621      67                N/A     2/ 6
CASHES LEDGE BUO 1650   70 68              1010.9F   3/ 6
$$

.............KEY..............
   WCI - WIND CHILL
   TC  - TEMPERATURE IN CELSIUS
   VSB - VISIBILITY IN MILES
   HX  - HEAT INDEX
   FAIR- INDICATES FEW OR NO CLOUDS BELOW 12,000 FT, WITH NO
         SIGNIFICANT WEATHER AND/OR OBSTRUCTIONS TO VISIBILITY.




USA.gov is the U.S. government's official web portal to all federal, state and local government web resources and services.